When you browse on this site, cookies collect data to enhance your experience and personalize the content and advertising you see.
Visit our Privacy Policy to learn more. By continuing to use the site, you agree to this use of cookies and data.
  • In United Kingdom
  • List of Countries
  • For 7 days
  • Water Temperature
  • Satellite Maps
  • Weather Map
  • Weather Widgets
  • user-avatar
    Login

    Hourly Weather Bucaramanga

    Today, 26 April, Friday

    Time Temperature Precipitation Wind Pressure Humidity
    00:00 +22°C° 0.3 mm 0 mps 674 mmHg 80%
    01:00 +22°C° 0.3 mm 0 mps 674 mmHg 81%
    02:00 +22°C° 0.6 mm 0 mps 674 mmHg 82%
    03:00 +22°C° 0.6 mm 0 mps 674 mmHg 82%
    04:00 +21°C° 0.6 mm 0 mps 673 mmHg 83%
    05:00 +21°C° 0.6 mm 0 mps 674 mmHg 84%
    06:00 +21°C° 0.6 mm 0 mps 674 mmHg 84%
    07:00 +22°C° 0.6 mm 0 mps 674 mmHg 84%
    08:00 +25°C° 0.2 mm 1 mps 674 mmHg 79%
    09:00 +26°C° 0.2 mm 1 mps 675 mmHg 74%
    10:00 +27°C° 0.2 mm 1 mps 675 mmHg 69%
    11:00 +28°C° 0.2 mm 1 mps 675 mmHg 66%
    12:00 +29°C° 0.2 mm 1 mps 675 mmHg 64%
    13:00 +30°C° 0.2 mm 2 mps 674 mmHg 61%
    14:00 +29°C° 1.1 mm 1 mps 673 mmHg 65%
    15:00 +28°C° 1.1 mm 1 mps 673 mmHg 69%
    16:00 +27°C° 1.1 mm 1 mps 672 mmHg 72%
    17:00 +26°C° 1.1 mm 1 mps 672 mmHg 76%
    18:00 +25°C° 1.1 mm 1 mps 673 mmHg 79%
    19:00 +25°C° 1.1 mm 1 mps 673 mmHg 82%
    20:00 +24°C° 0.5 mm 1 mps 673 mmHg 82%
    21:00 +24°C° 0.5 mm 1 mps 674 mmHg 82%
    22:00 +24°C° 0.5 mm 1 mps 674 mmHg 82%
    23:00 +24°C° 0.1 mm 1 mps 674 mmHg 82%

    Tomorrow, 27 April, Saturday

    Time Temperature Precipitation Wind Pressure Humidity
    00:00 +23°C° 0.1 mm 1 mps 673 mmHg 83%
    01:00 +23°C° 0.1 mm 1 mps 673 mmHg 83%
    02:00 +23°C° 0 mm 1 mps 673 mmHg 84%
    03:00 +22°C° 0 mm 1 mps 673 mmHg 84%
    04:00 +22°C° 0 mm 1 mps 672 mmHg 84%
    05:00 +21°C° 0 mm 0 mps 673 mmHg 81%
    06:00 +22°C° 0 mm 0 mps 673 mmHg 78%
    07:00 +22°C° 0 mm 0 mps 674 mmHg 75%
    08:00 +26°C° 0 mm 1 mps 674 mmHg 69%
    09:00 +28°C° 0 mm 1 mps 675 mmHg 63%
    10:00 +29°C° 0 mm 1 mps 676 mmHg 57%
    11:00 +29°C° 0.4 mm 1 mps 675 mmHg 59%
    12:00 +29°C° 0.4 mm 1 mps 674 mmHg 62%
    13:00 +28°C° 0.4 mm 1 mps 673 mmHg 64%
    14:00 +28°C° 0.5 mm 1 mps 672 mmHg 66%
    15:00 +28°C° 0.5 mm 1 mps 672 mmHg 68%
    16:00 +27°C° 0.5 mm 1 mps 671 mmHg 69%
    17:00 +26°C° 0.2 mm 1 mps 671 mmHg 72%
    18:00 +25°C° 0.2 mm 1 mps 672 mmHg 75%
    19:00 +24°C° 0.2 mm 1 mps 672 mmHg 78%
    20:00 +24°C° 0.1 mm 1 mps 673 mmHg 77%
    21:00 +24°C° 0.1 mm 1 mps 673 mmHg 76%
    22:00 +24°C° 0.1 mm 1 mps 674 mmHg 76%
    23:00 +24°C° 0.5 mm 1 mps 673 mmHg 76%

    Day after tomorrow, 28 April, Sunday

    Time Temperature Precipitation Wind Pressure Humidity
    00:00 +23°C° 0.5 mm 1 mps 673 mmHg 76%
    01:00 +23°C° 0.5 mm 1 mps 672 mmHg 76%
    02:00 +23°C° 2.1 mm 1 mps 672 mmHg 79%
    03:00 +23°C° 2.1 mm 1 mps 672 mmHg 82%
    04:00 +22°C° 2.1 mm 1 mps 672 mmHg 84%
    05:00 +22°C° 2 mm 1 mps 672 mmHg 85%
    06:00 +22°C° 2 mm 1 mps 672 mmHg 85%
    07:00 +22°C° 2 mm 1 mps 673 mmHg 86%
    08:00 +23°C° 1 mm 1 mps 673 mmHg 85%
    09:00 +24°C° 1 mm 1 mps 674 mmHg 84%
    10:00 +23°C° 1 mm 0 mps 674 mmHg 82%
    11:00 +25°C° 0.4 mm 1 mps 674 mmHg 79%
    12:00 +26°C° 0.4 mm 1 mps 673 mmHg 75%
    13:00 +27°C° 0.4 mm 1 mps 673 mmHg 71%
    14:00 +27°C° 0.4 mm 1 mps 672 mmHg 70%
    15:00 +27°C° 0.4 mm 1 mps 672 mmHg 70%
    16:00 +27°C° 0.4 mm 1 mps 671 mmHg 70%
    17:00 +26°C° 0.4 mm 1 mps 672 mmHg 73%
    18:00 +25°C° 0.4 mm 1 mps 672 mmHg 77%
    19:00 +24°C° 0.4 mm 1 mps 672 mmHg 80%
    20:00 +24°C° 0.2 mm 1 mps 673 mmHg 80%
    21:00 +24°C° 0.2 mm 1 mps 673 mmHg 80%
    22:00 +23°C° 0.2 mm 1 mps 673 mmHg 79%
    23:00 +23°C° 0.1 mm 1 mps 673 mmHg 79%

    29 April, Monday

    Time Temperature Precipitation Wind Pressure Humidity
    00:00 +23°C° 0.1 mm 1 mps 673 mmHg 79%
    01:00 +23°C° 0.1 mm 1 mps 672 mmHg 79%
    02:00 +22°C° 0 mm 1 mps 672 mmHg 79%
    03:00 +22°C° 0 mm 1 mps 672 mmHg 79%
    04:00 +22°C° 0 mm 1 mps 672 mmHg 79%
    05:00 +23°C° 0 mm 1 mps 672 mmHg 77%
    06:00 +23°C° 0 mm 1 mps 673 mmHg 74%
    07:00 +24°C° 0 mm 1 mps 673 mmHg 72%
    08:00 +26°C° 0 mm 1 mps 674 mmHg 66%
    09:00 +28°C° 0 mm 1 mps 674 mmHg 59%
    10:00 +30°C° 0 mm 1 mps 675 mmHg 53%
    11:00 +30°C° 0 mm 2 mps 674 mmHg 54%
    12:00 +30°C° 0 mm 2 mps 673 mmHg 55%
    13:00 +30°C° 0 mm 2 mps 672 mmHg 56%
    14:00 +30°C° 0.6 mm 2 mps 672 mmHg 59%
    15:00 +29°C° 0.6 mm 1 mps 672 mmHg 62%
    16:00 +29°C° 0.6 mm 1 mps 671 mmHg 65%
    17:00 +28°C° 1.7 mm 1 mps 671 mmHg 70%
    18:00 +26°C° 1.7 mm 1 mps 672 mmHg 76%
    19:00 +25°C° 1.7 mm 1 mps 672 mmHg 82%
    20:00 +25°C° 0.5 mm 1 mps 673 mmHg 81%
    21:00 +24°C° 0.5 mm 1 mps 673 mmHg 80%
    22:00 +24°C° 0.5 mm 1 mps 673 mmHg 79%
    23:00 +24°C° 0.4 mm 1 mps 673 mmHg 79%

    30 April, Tuesday

    Time Temperature Precipitation Wind Pressure Humidity
    00:00 +24°C° 0.4 mm 1 mps 673 mmHg 80%
    01:00 +23°C° 0.4 mm 1 mps 673 mmHg 80%
    02:00 +23°C° 0.1 mm 1 mps 672 mmHg 80%
    03:00 +23°C° 0.1 mm 1 mps 672 mmHg 80%
    04:00 +23°C° 0.1 mm 1 mps 672 mmHg 80%
    05:00 +23°C° 0 mm 1 mps 673 mmHg 78%
    06:00 +24°C° 0 mm 1 mps 673 mmHg 76%
    07:00 +24°C° 0 mm 1 mps 674 mmHg 75%
    08:00 +26°C° 0 mm 1 mps 674 mmHg 67%
    09:00 +28°C° 0 mm 1 mps 674 mmHg 60%
    10:00 +30°C° 0 mm 1 mps 675 mmHg 53%
    11:00 +30°C° 0.1 mm 1 mps 674 mmHg 54%
    12:00 +30°C° 0.1 mm 2 mps 673 mmHg 55%
    13:00 +31°C° 0.1 mm 2 mps 673 mmHg 57%
    14:00 +30°C° 0.6 mm 2 mps 672 mmHg 59%
    15:00 +30°C° 0.6 mm 1 mps 672 mmHg 61%
    16:00 +30°C° 0.6 mm 1 mps 671 mmHg 64%
    17:00 +28°C° 1.2 mm 1 mps 672 mmHg 68%
    18:00 +27°C° 1.2 mm 1 mps 672 mmHg 73%
    19:00 +25°C° 1.2 mm 1 mps 673 mmHg 77%
    20:00 +25°C° 0.5 mm 1 mps 673 mmHg 76%
    21:00 +25°C° 0.5 mm 1 mps 673 mmHg 75%
    22:00 +25°C° 0.5 mm 1 mps 674 mmHg 74%
    23:00 +24°C° 0.2 mm 1 mps 674 mmHg 73%

    1 May, Wednesday

    Time Temperature Precipitation Wind Pressure Humidity
    00:00 +24°C° 0.2 mm 1 mps 673 mmHg 72%
    01:00 +24°C° 0.2 mm 1 mps 673 mmHg 72%
    02:00 +24°C° 0.2 mm 1 mps 673 mmHg 71%
    03:00 +23°C° 0.2 mm 1 mps 673 mmHg 71%
    04:00 +23°C° 0.2 mm 1 mps 673 mmHg 71%
    05:00 +23°C° 0.1 mm 1 mps 673 mmHg 70%
    06:00 +24°C° 0.1 mm 1 mps 674 mmHg 69%
    07:00 +24°C° 0.1 mm 1 mps 674 mmHg 68%
    08:00 +26°C° 0 mm 1 mps 674 mmHg 62%
    09:00 +28°C° 0 mm 1 mps 675 mmHg 57%
    10:00 +30°C° 0 mm 1 mps 675 mmHg 51%
    11:00 +30°C° 0 mm 1 mps 674 mmHg 51%
    12:00 +31°C° 0 mm 1 mps 674 mmHg 52%
    13:00 +31°C° 0 mm 2 mps 673 mmHg 52%
    14:00 +31°C° 0.1 mm 2 mps 673 mmHg 54%
    15:00 +30°C° 0.1 mm 1 mps 672 mmHg 57%
    16:00 +30°C° 0.1 mm 1 mps 672 mmHg 59%
    17:00 +29°C° 0.2 mm 1 mps 672 mmHg 65%
    18:00 +27°C° 0.2 mm 1 mps 672 mmHg 70%
    19:00 +26°C° 0.2 mm 1 mps 672 mmHg 75%
    20:00 +26°C° 0.2 mm 1 mps 673 mmHg 73%
    21:00 +26°C° 0.2 mm 1 mps 673 mmHg 71%
    22:00 +25°C° 0.2 mm 1 mps 674 mmHg 69%
    23:00 +25°C° 0.1 mm 1 mps 673 mmHg 69%
    Show more